EW0725 Weather Reports


time (UTC)temp
C
wind
direction
speed
KPH
gust
KPH
rain 1hr
cm
rain 24hr
cm
rain mn
cm
humidity
%
barometer
mb
20260507002138 7 186 4.8 4.8 0.00 0.00 0.00 90 1012.6
20260507001635 7 190 4.8 6.4 0.00 0.00 0.00 90 1012.6
20260507001136 7 182 4.8 4.8 0.00 0.00 0.00 90 1012.6
20260507000636 7 187 4.8 4.8 0.00 0.00 0.00 90 1012.5
20260507000134 7 182 4.8 6.4 0.00 0.00 0.00 89 1012.5
20260506235636 7 188 4.8 6.4 0.00 0.00 0.00 89 1012.5
20260506235136 7 182 4.8 6.4 0.00 0.00 0.00 89 1012.6
20260506234636 7 188 4.8 4.8 0.00 0.00 0.00 89 1012.6
20260506234137 8 183 4.8 4.8 0.00 0.00 0.00 89 1012.6
20260506233636 8 187 4.8 4.8 0.00 0.00 0.00 88 1012.5
20260506233139 8 175 4.8 6.4 0.00 0.00 0.00 88 1012.5
20260506232637 8 187 4.8 4.8 0.00 0.00 0.00 88 1012.5
20260506232136 8 186 4.8 4.8 0.00 0.00 0.00 88 1012.4
20260506231636 8 176 4.8 6.4 0.00 0.00 0.00 88 1012.4
20260506231134 8 192 4.8 4.8 0.00 0.00 0.00 87 1012.4
20260506230635 8 193 3.2 4.8 0.00 0.00 0.00 87 1012.4
20260506230136 8 185 3.2 4.8 0.00 0.00 0.00 87 1012.4
20260506225635 8 182 4.8 4.8 0.00 0.00 0.00 87 1012.4
20260506225136 8 215 3.2 3.2 0.00 0.00 0.00 87 1012.3
20260506224636 8 183 4.8 4.8 0.00 0.00 0.00 86 1012.4
20260506224136 8 205 3.2 4.8 0.00 0.00 0.00 86 1012.3
20260506223637 8 191 3.2 4.8 0.00 0.00 0.00 86 1012.3
20260506223136 8 169 3.2 4.8 0.00 0.00 0.00 86 1012.3
20260506222639 8 187 4.8 6.4 0.00 0.00 0.00 87 1012.3
20260506222136 8 223 3.2 4.8 0.00 0.00 0.00 87 1012.2
20260506221635 8 195 3.2 4.8 0.00 0.00 0.00 87 1012.2
20260506221136 8 197 4.8 4.8 0.00 0.00 0.00 87 1012.2
20260506220635 9 213 3.2 4.8 0.00 0.00 0.00 87 1012.2
20260506220136 8 195 4.8 6.4 0.00 0.00 0.00 87 1012.2
20260506215636 8 231 3.2 4.8 0.00 0.00 0.18 88 1012.1
20260506215136 8 190 4.8 4.8 0.00 0.00 0.18 88 1012.1
20260506214639 8 203 3.2 4.8 0.00 0.00 0.18 88 1012.1
20260506214138 8 194 6.4 6.4 0.00 0.00 0.18 88 1012.0
20260506213636 8 196 4.8 4.8 0.00 0.00 0.18 88 1012.0
20260506213134 8 186 4.8 4.8 0.00 0.00 0.18 88 1011.9
20260506212635 8 180 4.8 4.8 0.00 0.00 0.18 87 1011.9
20260506212137 8 184 4.8 4.8 0.00 0.00 0.18 87 1011.9
20260506211637 8 179 4.8 4.8 0.00 0.00 0.18 87 1012.0
20260506210922 8 192 4.8 4.8 0.00 0.00 0.18 87 1012.0
20260506210403 8 181 4.8 4.8 0.00 0.00 0.18 86 1012.0
20260506205903 8 293 3.2 3.2 0.00 0.00 0.18 86 1012.0
20260506205401 9 289 3.2 3.2 0.00 0.00 0.18 86 1011.9
20260506204903 9 213 3.2 4.8 0.00 0.00 0.18 86 1011.9
20260506204403 9 194 4.8 4.8 0.00 0.00 0.18 85 1011.9
20260506203902 9 196 3.2 4.8 0.00 0.00 0.18 85 1011.9
20260506203403 9 195 4.8 4.8 0.00 0.00 0.18 85 1011.9
20260506202902 9 197 4.8 6.4 0.00 0.00 0.18 85 1011.8
20260506202401 9 185 6.4 6.4 0.00 0.00 0.18 85 1011.8
20260506201901 9 199 4.8 6.4 0.00 0.00 0.18 84 1011.7
20260506201404 9 183 4.8 6.4 0.00 0.00 0.18 84 1011.7
20260506200901 9 185 6.4 6.4 0.00 0.00 0.18 84 1011.7
20260506200401 9 184 6.4 6.4 0.00 0.00 0.18 84 1011.7
20260506195903 9 182 6.4 6.4 0.00 0.00 0.18 84 1011.7
20260506195404 10 184 6.4 6.4 0.00 0.00 0.18 83 1011.6
20260506194901 10 188 6.4 6.4 0.00 0.00 0.18 84 1011.6
20260506194403 10 184 6.4 6.4 0.00 0.00 0.18 83 1011.6
20260506193903 10 184 6.4 6.4 0.00 0.00 0.18 83 1011.5
20260506193403 10 182 6.4 6.4 0.00 0.00 0.18 83 1011.4
20260506192901 10 181 6.4 6.4 0.00 0.00 0.18 83 1011.4
20260506192402 10 183 6.4 6.4 0.00 0.00 0.18 82 1011.4
20260506191903 10 174 6.4 8.0 0.00 0.00 0.18 83 1011.4
20260506191401 10 184 6.4 6.4 0.00 0.00 0.18 83 1011.3
20260506190904 10 182 6.4 6.4 0.00 0.00 0.18 82 1011.3
20260506190404 10 176 6.4 6.4 0.00 0.00 0.18 82 1011.2
20260506185902 10 176 6.4 6.4 0.00 0.00 0.18 82 1011.2
20260506185402 10 173 4.8 6.4 0.00 0.00 0.18 82 1011.1
20260506184903 10 179 6.4 6.4 0.00 0.00 0.18 81 1011.1
20260506184401 10 183 4.8 6.4 0.00 0.00 0.18 81 1011.0
20260506183904 10 116 3.2 4.8 0.00 0.00 0.18 81 1010.9
20260506183402 10 189 4.8 6.4 0.00 0.00 0.18 81 1010.9
20260506182902 10 152 6.4 6.4 0.00 0.00 0.18 81 1010.8
20260506182403 10 171 6.4 8.0 0.00 0.00 0.18 80 1010.8
20260506181902 10 201 4.8 6.4 0.00 0.00 0.18 81 1010.8
20260506181401 10 178 6.4 6.4 0.00 0.00 0.18 81 1010.7
20260506180902 10 174 4.8 6.4 0.00 0.00 0.18 80 1010.6
20260506180401 10 145 4.8 6.4 0.00 0.00 0.18 79 1010.6
20260506175903 10 159 4.8 6.4 0.00 0.00 0.18 78 1010.5
20260506175404 10 321 3.2 4.8 0.00 0.00 0.18 79 1010.5
20260506174902 10 162 6.4 6.4 0.00 0.00 0.18 79 1010.3
20260506174402 11 150 6.4 8.0 0.00 0.00 0.18 77 1010.3
20260506173902 11 171 6.4 6.4 0.00 0.00 0.18 78 1010.2
20260506173401 11 137 3.2 4.8 0.00 0.00 0.18 77 1010.2
20260506172901 11 176 4.8 6.4 0.00 0.00 0.18 78 1010.1
20260506172405 11 162 6.4 6.4 0.00 0.00 0.18 77 1010.1
20260506171902 11 93 1.6 3.2 0.00 0.00 0.18 76 1010.1
20260506171401 11 156 4.8 6.4 0.00 0.00 0.18 78 1010.1
20260506170903 11 169 4.8 6.4 0.00 0.00 0.18 77 1010.1
20260506170402 10 146 4.8 6.4 0.00 0.00 0.18 76 1010.1
20260506165902 10 104 4.8 6.4 0.00 0.00 0.18 76 1010.1
20260506165404 10 139 3.2 6.4 0.00 0.00 0.18 76 1010.1
20260506164902 10 190 3.2 6.4 0.00 0.00 0.18 77 1010.1
20260506164401 10 121 4.8 6.4 0.00 0.00 0.18 76 1010.1
20260506163903 10 140 6.4 8.0 0.00 0.00 0.18 77 1010.1
20260506163402 10 95 3.2 6.4 0.00 0.00 0.18 77 1010.1
20260506162905 10 72 3.2 4.8 0.00 0.00 0.18 78 1010.1
20260506162404 10 125 3.2 6.4 0.00 0.00 0.18 79 1010.1
20260506161903 10 149 3.2 6.4 0.00 0.00 0.18 79 1010.1
20260506161403 10 104 8.0 14.5 0.00 0.00 0.18 79 1010.2
20260506160904 10 114 3.2 9.7 0.00 0.00 0.18 80 1010.2
20260506160402 10 71 4.8 9.7 0.00 0.00 0.18 79 1010.2
20260506155902 10 113 3.2 4.8 0.00 0.00 0.18 81 1010.2
20260506155404 10 92 3.2 4.8 0.00 0.00 0.18 81 1010.2
20260506154902 10 98 4.8 6.4 0.00 0.00 0.18 81 1010.3
20260506154401 10 151 3.2 8.0 0.00 0.00 0.18 83 1010.2
20260506153903 10 162 6.4 8.0 0.00 0.00 0.18 83 1010.2
20260506153403 10 141 4.8 6.4 0.00 0.00 0.18 85 1010.2
20260506152902 10 150 4.8 6.4 0.00 0.00 0.18 84 1010.2
20260506152401 10 174 6.4 9.7 0.00 0.00 0.18 84 1010.2
20260506151901 10 136 4.8 8.0 0.00 0.00 0.18 84 1010.1
20260506151404 10 161 6.4 9.7 0.00 0.00 0.18 86 1010.1
20260506150901 10 166 6.4 8.0 0.00 0.00 0.18 86 1010.0
20260506150404 10 140 6.4 9.7 0.00 0.00 0.18 87 1009.9
20260506145904 10 143 4.8 6.4 0.00 0.00 0.18 88 1009.9
20260506145402 10 175 4.8 6.4 0.00 0.00 0.18 89 1009.8
20260506144902 10 209 3.2 6.4 0.00 0.00 0.18 90 1009.9
20260506144404 10 176 6.4 6.4 0.00 0.00 0.18 90 1009.9
20260506143902 10 170 6.4 6.4 0.00 0.00 0.18 90 1009.8
20260506143404 10 153 6.4 6.4 0.00 0.00 0.18 90 1009.9
20260506142903 10 146 4.8 8.0 0.00 0.00 0.18 90 1009.8
20260506142404 10 140 4.8 9.7 0.00 0.00 0.18 89 1009.8
20260506141905 10 168 6.4 9.7 0.00 0.00 0.18 90 1009.7
20260506141401 10 119 4.8 6.4 0.00 0.00 0.18 90 1009.8
20260506140904 10 177 6.4 8.0 0.00 0.00 0.18 90 1009.8
20260506140404 10 132 4.8 8.0 0.00 0.00 0.18 90 1009.8
20260506135902 9 183 6.4 8.0 0.00 0.00 0.18 91 1009.8
20260506135404 9 177 6.4 8.0 0.00 0.00 0.18 91 1009.7
20260506134902 9 177 6.4 8.0 0.00 0.00 0.18 91 1009.7
20260506134402 9 178 6.4 8.0 0.00 0.00 0.18 90 1009.7
20260506133902 9 159 4.8 6.4 0.00 0.00 0.18 91 1009.6
20260506133401 9 172 6.4 8.0 0.00 0.00 0.18 92 1009.7
20260506132902 9 88 3.2 6.4 0.00 0.00 0.18 90 1009.6
20260506132404 9 127 4.8 6.4 0.00 0.00 0.18 91 1009.7
20260506131902 9 174 6.4 8.0 0.00 0.00 0.18 92 1009.6
20260506131401 9 161 6.4 8.0 0.00 0.00 0.18 92 1009.7
20260506130904 9 155 4.8 6.4 0.00 0.00 0.18 92 1009.7
20260506130404 9 189 4.8 6.4 0.00 0.00 0.18 91 1009.6
20260506125904 9 194 4.8 6.4 0.00 0.00 0.18 91 1009.6
20260506125402 9 157 4.8 6.4 0.00 0.00 0.18 91 1009.6
20260506124901 9 149 3.2 6.4 0.00 0.00 0.18 91 1009.6
20260506124404 9 157 4.8 8.0 0.00 0.00 0.18 93 1009.5
20260506123902 9 129 3.2 6.4 0.03 0.00 0.18 92 1009.5
20260506123402 9 128 3.2 4.8 0.03 0.00 0.15 90 1009.5
20260506122903 9 136 3.2 4.8 0.05 0.00 0.15 90 1009.4
20260506122402 9 179 6.4 8.0 0.00 0.00 0.15 91 1009.4
20260506121906 9 162 6.4 6.4 0.00 0.00 0.15 92 1009.4
20260506121403 9 186 4.8 6.4 0.00 0.00 0.15 91 1009.4
20260506120902 9 156 3.2 4.8 0.00 0.00 0.15 90 1009.4
20260506120405 9 162 6.4 6.4 0.00 0.00 0.15 90 1009.4
20260506115902 9 178 6.4 6.4 0.00 0.00 0.15 90 1009.3
20260506115401 9 217 3.2 4.8 0.00 0.00 0.15 90 1009.2
20260506114903 9 127 6.4 9.7 0.00 0.00 0.15 90 1009.2
20260506114401 9 152 4.8 6.4 0.00 0.00 0.15 91 1009.2
20260506113904 9 151 4.8 6.4 0.00 0.00 0.15 92 1009.2
20260506113402 9 166 6.4 9.7 0.05 0.00 0.15 92 1009.2
20260506112904 9 183 4.8 6.4 0.03 0.00 0.15 93 1009.2
20260506112401 9 118 6.4 9.7 0.05 0.00 0.15 92 1009.1
20260506111904 9 162 4.8 8.0 0.05 0.00 0.15 93 1009.0
20260506111405 9 173 6.4 8.0 0.10 0.00 0.15 94 1009.0
20260506110901 9 142 6.4 6.4 0.08 0.00 0.13 93 1009.0
20260506110401 9 160 4.8 6.4 0.00 0.00 0.13 94 1009.0
20260506105903 9 169 4.8 6.4 0.00 0.00 0.13 94 1008.9
20260506105405 9 190 4.8 6.4 0.00 0.00 0.13 93 1008.9
20260506104903 9 183 4.8 6.4 0.00 0.00 0.13 94 1008.9
20260506104403 9 172 4.8 4.8 0.00 0.00 0.13 94 1008.8
20260506103903 9 166 4.8 6.4 0.00 0.00 0.13 95 1008.8
20260506103403 9 173 6.4 6.4 0.00 0.00 0.13 95 1008.9
20260506102904 9 158 4.8 6.4 0.00 0.00 0.13 95 1008.8
20260506102403 9 182 6.4 6.4 0.00 0.00 0.13 96 1008.8
20260506101904 8 171 4.8 4.8 0.00 0.00 0.13 96 1008.7
20260506101401 8 188 4.8 4.8 0.03 0.00 0.13 96 1008.7
20260506100902 8 232 3.2 4.8 0.03 0.00 0.13 96 1008.7
20260506100403 8 203 3.2 4.8 0.00 0.00 0.13 96 1008.7
20260506095902 8 307 3.2 3.2 0.00 0.00 0.13 96 1008.7
20260506095404 8 120 3.2 4.8 0.00 0.00 0.13 96 1008.7
20260506094901 8 150 3.2 4.8 0.00 0.00 0.13 96 1008.7
20260506094404 8 176 4.8 4.8 0.00 0.00 0.13 96 1008.7
20260506093904 8 148 4.8 6.4 0.00 0.00 0.13 96 1008.6
20260506093401 8 1 1.6 3.2 0.00 0.00 0.13 96 1008.6
20260506092903 8 190 4.8 6.4 0.00 0.00 0.13 96 1008.6
20260506092402 8 303 3.2 4.8 0.00 0.00 0.13 96 1008.5
20260506091904 8 299 3.2 3.2 0.00 0.00 0.13 96 1008.5
20260506091401 8 169 3.2 4.8 0.00 0.00 0.13 96 1008.5
20260506090902 8 336 1.6 1.6 0.00 0.00 0.13 96 1008.5
20260506090401 8 328 3.2 4.8 0.00 0.00 0.13 96 1008.5
20260506085901 8 52 3.2 4.8 0.00 0.00 0.13 96 1008.5
20260506085402 8 171 3.2 6.4 0.00 0.00 0.13 96 1008.5
20260506084903 8 321 3.2 3.2 0.00 0.00 0.13 96 1008.4
20260506084404 8 127 3.2 4.8 0.03 0.00 0.13 96 1008.4
20260506083903 8 186 4.8 4.8 0.00 0.00 0.13 96 1008.4
20260506083401 8 217 3.2 4.8 0.00 0.00 0.13 96 1008.4
20260506082904 8 178 3.2 3.2 0.00 0.00 0.13 96 1008.4
20260506082402 8 126 3.2 4.8 0.00 0.00 0.13 96 1008.3
20260506081901 8 336 1.6 1.6 0.00 0.00 0.13 96 1008.3
20260506081402 8 335 1.6 3.2 0.00 0.00 0.13 96 1008.3
20260506080901 8 219 3.2 4.8 0.00 0.00 0.13 96 1008.3
20260506080402 8 345 1.6 1.6 0.00 0.00 0.13 96 1008.2
20260506073404 7 337 1.6 1.6 0.03 0.00 0.10 96 1008.1
20260506072902 7 271 3.2 4.8 0.00 0.00 0.10 96 1008.2
20260506072403 7 190 3.2 6.4 0.00 0.00 0.10 96 1008.2
20260506071903 7 164 3.2 6.4 0.00 0.00 0.10 96 1008.1
20260506071402 7 106 6.4 8.0 0.00 0.00 0.10 95 1008.0
20260506070901 7 176 4.8 4.8 0.00 0.00 0.10 95 1008.0
20260506070403 7 145 3.2 4.8 0.00 0.00 0.10 95 1007.9
20260506062401 7 176 4.8 6.4 0.03 0.00 0.10 95 1007.8
20260506061901 7 200 4.8 4.8 0.03 0.00 0.10 95 1007.7
20260506061401 7 97 4.8 6.4 0.05 0.00 0.10 95 1007.7
20260506060901 8 189 4.8 6.4 0.08 0.00 0.10 95 1007.7
20260506060401 8 143 3.2 4.8 0.10 0.00 0.08 95 1007.7
20260506051402 8 288 3.2 4.8 0.00 0.00 0.08 95 1007.4
20260506050902 8 340 1.6 1.6 0.00 0.00 0.08 95 1007.4
20260506050403 8 220 3.2 3.2 0.00 0.00 0.08 95 1007.4
20260506044902 8 213 3.2 3.2 0.00 0.00 0.08 95 1007.4
20260506044402 8 336 1.6 1.6 0.00 0.00 0.08 95 1007.4
20260506043901 8 276 1.6 3.2 0.00 0.00 0.08 95 1007.4
20260506043403 8 288 1.6 3.2 0.00 0.00 0.08 95 1007.4
20260506042901 8 327 1.6 1.6 0.00 0.00 0.08 95 1007.4
20260506042402 8 189 3.2 4.8 0.00 0.00 0.08 95 1007.3
20260506041902 8 336 1.6 1.6 0.00 0.00 0.08 95 1007.4
20260506041403 8 320 1.6 3.2 0.00 0.00 0.05 95 1007.4
20260506040902 8 331 1.6 1.6 0.00 0.00 0.05 95 1007.4
20260506040402 8 329 1.6 1.6 0.00 0.00 0.05 95 1007.4
20260506035902 8 320 1.6 1.6 0.03 0.00 0.05 95 1007.4
20260506035401 8 270 1.6 3.2 0.03 0.00 0.05 95 1007.4
20260506034902 8 327 1.6 1.6 0.03 0.00 0.05 95 1007.4
20260506034401 8 248 1.6 3.2 0.00 0.00 0.05 95 1007.5
20260506033901 8 225 3.2 3.2 0.00 0.00 0.05 95 1007.5
20260506033402 8 277 1.6 3.2 0.00 0.00 0.05 95 1007.6
20260506032902 8 188 4.8 4.8 0.00 0.00 0.05 95 1007.6
20260506032402 8 330 1.6 1.6 0.00 0.00 0.05 95 1007.6
20260506031902 8 178 4.8 4.8 0.00 0.00 0.05 95 1007.6
20260506031404 8 213 3.2 4.8 0.03 0.00 0.05 95 1007.6
20260506030903 8 217 3.2 3.2 0.00 0.00 0.05 95 1007.7
20260506030402 8 323 1.6 3.2 0.00 0.00 0.05 95 1007.7
20260506025903 8 239 3.2 4.8 0.03 0.00 0.05 95 1007.7
20260506025402 8 208 3.2 4.8 0.03 0.00 0.05 95 1007.7
20260506024901 8 205 3.2 4.8 0.03 0.00 0.05 95 1007.7
20260506024402 8 198 3.2 4.8 0.03 0.00 0.05 95 1007.8
20260506023901 8 331 1.6 1.6 0.03 0.00 0.05 95 1007.8
20260506023401 8 5 3.2 3.2 0.05 0.00 0.05 95 1007.8
20260506022902 8 315 1.6 1.6 0.05 0.00 0.05 95 1007.9
20260506022402 8 255 1.6 3.2 0.03 0.00 0.05 95 1007.9
20260506021902 8 328 1.6 1.6 0.00 0.00 0.03 95 1008.0
20260506021404 8 326 1.6 1.6 0.03 0.00 0.03 95 1008.1
20260506020901 8 332 1.6 1.6 0.05 0.00 0.03 95 1008.1
20260506020404 8 20 3.2 3.2 0.03 0.00 0.03 95 1008.1
20260506015902 8 346 1.6 1.6 0.00 0.00 0.03 95 1008.1
20260506015402 8 0 1.6 1.6 0.03 0.00 0.03 95 1008.2
20260506014902 8 156 3.2 4.8 0.00 0.00 0.03 95 1008.2
20260506014401 8 60 1.6 3.2 0.00 0.00 0.03 95 1008.2
20260506013901 8 190 3.2 4.8 0.00 0.00 0.03 95 1008.3
20260506013403 8 173 3.2 4.8 0.00 0.00 0.03 95 1008.3
20260506012901 8 335 1.6 3.2 0.03 0.00 0.03 95 1008.3
20260506012403 8 160 4.8 6.4 0.03 0.00 0.03 95 1008.3
20260506011904 8 289 1.6 3.2 0.03 0.00 0.03 95 1008.4
20260506011402 8 271 3.2 4.8 0.03 0.00 0.03 95 1008.4
20260506010901 8 189 3.2 4.8 0.03 0.00 0.03 95 1008.4
20260506010402 8 320 3.2 4.8 0.03 0.00 0.03 95 1008.5
20260506005902 8 264 1.6 3.2 0.03 0.00 0.03 95 1008.5
20260506005402 8 329 3.2 4.8 0.05 0.00 0.03 95 1008.6
20260506004902 8 301 3.2 4.8 0.00 0.00 0.00 95 1008.6
20260506004402 8 204 3.2 4.8 0.03 0.00 0.00 95 1008.6
20260506003901 8 333 1.6 1.6 0.03 0.00 0.00 95 1008.6
20260506003404 8 184 4.8 6.4 0.00 0.00 0.00 95 1008.6
20260506002903 8 196 4.8 4.8 0.03 0.00 0.00 95 1008.7